User: anonymous   Login
Location: Hepcat Sky Observatory
(29.9800°N, 95.6500°W)
Time: 17:36:14
(UTC-06:00)
Language:

Cosmos 2151 Rocket - Orbit

View from above orbital plane
View from above orbital plane
View from above satellite
View from above satellite

Ground track
Ground track

The orbit data is extracted from the following two-line orbital elements,

1 21423U 91042B   14353.25844137  .00000748  00000-0  97164-4 0  8863
2 21423 082.4951 092.5380 0017223 358.5051 060.2370 14.79357126267897
Epoch (UTC): 19 December 2014 06:12:09
Eccentricity: 0.0017223
inclination: 82.4951°
perigee height: 619 km
apogee height: 643 km
right ascension of ascending node: 92.5380°
argument of perigee: 358.5051°
revolutions per day: 14.79357126
mean anomaly at epoch: 60.2370°
orbit number at epoch: 26789

The dashed part of the orbit path shows where the satellite is in the earth's shadow,  

DLR